• In Deutschland
  • Länderverzeichnis
  • Für 7 Tage
  • Wassertemperatur
  • Satellitenkarten
  • Wetterkarte
  • Widgets
  • user-avatar
    Anmelden

    Stündliche Wetter Hameln

    Heute, 19 Februar, Montag

    Zeit Temperatur Niederschläge Wind Luftdruck Luftfeuchtigkeit
    00:00 -2°C° 0 mm 2 m/S 758 mmHg 84%
    01:00 -2°C° 0 mm 2 m/S 758 mmHg 84%
    02:00 -2°C° 0 mm 2 m/S 757 mmHg 83%
    03:00 -2°C° 0 mm 2 m/S 757 mmHg 82%
    04:00 -2°C° 0 mm 2 m/S 757 mmHg 81%
    05:00 -2°C° 0 mm 2 m/S 756 mmHg 81%
    06:00 -2°C° 0 mm 2 m/S 756 mmHg 81%
    07:00 -2°C° 0 mm 2 m/S 756 mmHg 81%
    08:00 -1°C° 0 mm 2 m/S 756 mmHg 77%
    09:00 +1°C° 0 mm 2 m/S 756 mmHg 73%
    10:00 +2°C° 0 mm 2 m/S 756 mmHg 70%
    11:00 +3°C° 0 mm 2 m/S 755 mmHg 66%
    12:00 +3°C° 0 mm 2 m/S 755 mmHg 62%
    13:00 +4°C° 0 mm 2 m/S 755 mmHg 58%
    14:00 +5°C° 0 mm 1 m/S 754 mmHg 59%
    15:00 +5°C° 0 mm 1 m/S 754 mmHg 60%
    16:00 +5°C° 0 mm 1 m/S 754 mmHg 61%
    17:00 +4°C° 0 mm 1 m/S 753 mmHg 66%
    18:00 +3°C° 0 mm 1 m/S 753 mmHg 70%
    19:00 +2°C° 0 mm 1 m/S 753 mmHg 74%
    20:00 +2°C° 0 mm 1 m/S 753 mmHg 75%
    21:00 +1°C° 0 mm 1 m/S 753 mmHg 77%
    22:00 +1°C° 0 mm 1 m/S 753 mmHg 78%
    23:00 +1°C° 0 mm 1 m/S 753 mmHg 79%

    Morgen, 20 Februar, Dienstag

    Zeit Temperatur Niederschläge Wind Luftdruck Luftfeuchtigkeit
    00:00 +1°C° 0 mm 1 m/S 753 mmHg 80%
    01:00 0°C° 0 mm 1 m/S 753 mmHg 81%
    02:00 0°C° 0 mm 1 m/S 753 mmHg 82%
    03:00 0°C° 0 mm 1 m/S 753 mmHg 82%
    04:00 0°C° 0 mm 1 m/S 753 mmHg 83%
    05:00 0°C° 0 mm 1 m/S 753 mmHg 84%
    06:00 -1°C° 0 mm 1 m/S 753 mmHg 84%
    07:00 -3°C° 0 mm 2 m/S 753 mmHg 84%
    08:00 -2°C° 0 mm 2 m/S 753 mmHg 78%
    09:00 -1°C° 0 mm 2 m/S 753 mmHg 73%
    10:00 0°C° 0 mm 3 m/S 754 mmHg 67%
    11:00 +1°C° 0 mm 3 m/S 754 mmHg 63%
    12:00 +2°C° 0 mm 3 m/S 754 mmHg 59%
    13:00 +3°C° 0 mm 4 m/S 754 mmHg 55%
    14:00 +3°C° 0 mm 4 m/S 754 mmHg 56%
    15:00 +3°C° 0 mm 4 m/S 754 mmHg 57%
    16:00 +3°C° 0 mm 4 m/S 754 mmHg 58%
    17:00 0°C° 0 mm 4 m/S 755 mmHg 64%
    18:00 0°C° 0 mm 3 m/S 755 mmHg 70%
    19:00 -1°C° 0 mm 3 m/S 756 mmHg 76%
    20:00 -2°C° 0 mm 3 m/S 756 mmHg 78%
    21:00 -2°C° 0 mm 3 m/S 757 mmHg 79%
    22:00 -2°C° 0 mm 2 m/S 757 mmHg 81%
    23:00 -3°C° 0 mm 2 m/S 757 mmHg 82%

    übermorgen, 21 Februar, Mittwoch

    Zeit Temperatur Niederschläge Wind Luftdruck Luftfeuchtigkeit
    00:00 -3°C° 0 mm 2 m/S 758 mmHg 83%
    01:00 -3°C° 0 mm 2 m/S 758 mmHg 85%
    02:00 -3°C° 0 mm 2 m/S 758 mmHg 85%
    03:00 -3°C° 0 mm 2 m/S 758 mmHg 86%
    04:00 -4°C° 0 mm 2 m/S 758 mmHg 86%
    05:00 -4°C° 0 mm 2 m/S 758 mmHg 86%
    06:00 -4°C° 0 mm 2 m/S 759 mmHg 85%
    07:00 -4°C° 0 mm 2 m/S 759 mmHg 85%
    08:00 -3°C° 0 mm 2 m/S 759 mmHg 79%
    09:00 -2°C° 0 mm 2 m/S 759 mmHg 74%
    10:00 -1°C° 0 mm 3 m/S 759 mmHg 68%
    11:00 0°C° 0 mm 3 m/S 759 mmHg 63%
    12:00 +1°C° 0 mm 3 m/S 758 mmHg 58%
    13:00 +2°C° 0 mm 3 m/S 758 mmHg 54%
    14:00 +2°C° 0 mm 3 m/S 758 mmHg 55%
    15:00 +2°C° 0 mm 3 m/S 758 mmHg 56%
    16:00 +2°C° 0 mm 3 m/S 757 mmHg 57%
    17:00 +1°C° 0 mm 3 m/S 757 mmHg 62%
    18:00 0°C° 0 mm 3 m/S 757 mmHg 68%
    19:00 -1°C° 0 mm 3 m/S 757 mmHg 73%
    20:00 -2°C° 0 mm 3 m/S 758 mmHg 75%
    21:00 -2°C° 0 mm 3 m/S 758 mmHg 77%
    22:00 -2°C° 0 mm 3 m/S 758 mmHg 79%
    23:00 -4°C° 0 mm 3 m/S 758 mmHg 79%

    22 Februar, Donnerstag

    Zeit Temperatur Niederschläge Wind Luftdruck Luftfeuchtigkeit
    00:00 -4°C° 0 mm 3 m/S 758 mmHg 79%
    01:00 -4°C° 0 mm 3 m/S 758 mmHg 79%
    02:00 -4°C° 0 mm 4 m/S 758 mmHg 78%
    03:00 -5°C° 0 mm 4 m/S 758 mmHg 78%
    04:00 -5°C° 0 mm 4 m/S 757 mmHg 77%
    05:00 -5°C° 0 mm 4 m/S 757 mmHg 75%
    06:00 -5°C° 0 mm 4 m/S 757 mmHg 73%
    07:00 -5°C° 0 mm 4 m/S 757 mmHg 71%
    08:00 -5°C° 0 mm 5 m/S 757 mmHg 66%
    09:00 -4°C° 0 mm 5 m/S 757 mmHg 61%
    10:00 -4°C° 0 mm 6 m/S 758 mmHg 56%
    11:00 -3°C° 0 mm 6 m/S 757 mmHg 53%
    12:00 -2°C° 0 mm 6 m/S 757 mmHg 51%
    13:00 -1°C° 0 mm 6 m/S 757 mmHg 49%
    14:00 -1°C° 0 mm 6 m/S 756 mmHg 53%
    15:00 -1°C° 0 mm 6 m/S 756 mmHg 56%
    16:00 -1°C° 0 mm 6 m/S 756 mmHg 60%
    17:00 -1°C° 0 mm 5 m/S 756 mmHg 65%
    18:00 -2°C° 0 mm 5 m/S 756 mmHg 69%
    19:00 -3°C° 0 mm 4 m/S 756 mmHg 74%
    20:00 -4°C° 0 mm 5 m/S 756 mmHg 71%
    21:00 -5°C° 0 mm 5 m/S 756 mmHg 68%
    22:00 -5°C° 0 mm 5 m/S 756 mmHg 65%
    23:00 -6°C° 0 mm 5 m/S 756 mmHg 65%

    23 Februar, Freitag

    Zeit Temperatur Niederschläge Wind Luftdruck Luftfeuchtigkeit
    00:00 -6°C° 0 mm 5 m/S 756 mmHg 65%
    01:00 -6°C° 0 mm 5 m/S 756 mmHg 65%
    02:00 -6°C° 0 mm 5 m/S 756 mmHg 66%
    03:00 -7°C° 0 mm 5 m/S 756 mmHg 67%
    04:00 -7°C° 0 mm 5 m/S 755 mmHg 68%
    05:00 -7°C° 0 mm 5 m/S 755 mmHg 68%
    06:00 -7°C° 0 mm 5 m/S 755 mmHg 69%
    07:00 -7°C° 0 mm 5 m/S 755 mmHg 70%
    08:00 -6°C° 0 mm 6 m/S 756 mmHg 65%
    09:00 -6°C° 0 mm 6 m/S 756 mmHg 60%
    10:00 -6°C° 0 mm 6 m/S 756 mmHg 55%
    11:00 -5°C° 0 mm 6 m/S 756 mmHg 51%
    12:00 -5°C° 0 mm 6 m/S 755 mmHg 47%
    13:00 -4°C° 0 mm 6 m/S 755 mmHg 43%
    14:00 -4°C° 0 mm 6 m/S 755 mmHg 43%
    15:00 -4°C° 0 mm 6 m/S 755 mmHg 44%
    16:00 -4°C° 0 mm 6 m/S 755 mmHg 44%
    17:00 -5°C° 0 mm 5 m/S 755 mmHg 48%
    18:00 -4°C° 0 mm 4 m/S 755 mmHg 52%
    19:00 -5°C° 0 mm 3 m/S 755 mmHg 56%
    20:00 -5°C° 0 mm 3 m/S 756 mmHg 58%
    21:00 -6°C° 0 mm 3 m/S 756 mmHg 61%
    22:00 -7°C° 0 mm 4 m/S 756 mmHg 63%
    23:00 -6°C° 0 mm 3 m/S 756 mmHg 63%

    24 Februar, Samstag

    Zeit Temperatur Niederschläge Wind Luftdruck Luftfeuchtigkeit
    00:00 -7°C° 0 mm 3 m/S 756 mmHg 63%
    01:00 -7°C° 0 mm 3 m/S 756 mmHg 64%
    02:00 -7°C° 0 mm 3 m/S 756 mmHg 64%
    03:00 -7°C° 0 mm 3 m/S 756 mmHg 64%
    04:00 -7°C° 0 mm 3 m/S 756 mmHg 64%
    05:00 -7°C° 0 mm 3 m/S 757 mmHg 63%
    06:00 -9°C° 0 mm 4 m/S 757 mmHg 61%
    07:00 -9°C° 0 mm 4 m/S 757 mmHg 60%
    08:00 -8°C° 0 mm 4 m/S 757 mmHg 56%
    09:00 -8°C° 0 mm 5 m/S 757 mmHg 53%
    10:00 -7°C° 0 mm 5 m/S 758 mmHg 49%
    11:00 -7°C° 0 mm 5 m/S 758 mmHg 46%
    12:00 -6°C° 0 mm 5 m/S 757 mmHg 43%
    13:00 -5°C° 0 mm 4 m/S 757 mmHg 39%
    14:00 -5°C° 0 mm 4 m/S 757 mmHg 38%
    15:00 -5°C° 0 mm 4 m/S 757 mmHg 36%
    16:00 -5°C° 0 mm 4 m/S 756 mmHg 34%
    17:00 -7°C° 0 mm 4 m/S 757 mmHg 39%
    18:00 -7°C° 0 mm 4 m/S 757 mmHg 45%
    19:00 -8°C° 0 mm 4 m/S 757 mmHg 50%
    20:00 -8°C° 0 mm 4 m/S 757 mmHg 51%
    21:00 -9°C° 0 mm 4 m/S 757 mmHg 51%
    22:00 -9°C° 0 mm 4 m/S 757 mmHg 52%
    23:00 -10°C° 0 mm 4 m/S 757 mmHg 52%
    Mehr zeigen